FM-6

Last updated on Sun Jun 21 2026 00:03:05 GMT+0000 (Coordinated Universal Time)

1 39360U 13058A 26171.36558618 .00000000 00000+0 00000+0 0 9995 2 39360 0.0369 53.5945 0001400 119.5580 110.7383 1.00271043 46108
UTC large
Height (km)
Speed (km/s)
/
Latitude / Longitude
Inclination (degrees)
Orbital Period (minutes)
Azimuth
Elevation
Range (km)
Doppler Factor

Next 0 passes for location: London (51.5072 / 0.1276)

No passes found over London.
FM-6